Ostrava, Czech Republic

2:25 PM CET on February 21, 2017 (GMT +0100)
Mosnov

Weather History for LKMT - October, 2013

Change the Weather History Date:

Sunday, October 20, 2013

  Actual Average Record
Temperature  
Mean Temperature 52 °F -  
Max Temperature 61 °F 48 °F - ()
Min Temperature 43 °F 36 °F - ()
Degree Days  
Heating Degree Days 13    
Growing Degree Days 2 (Base 50)    
Moisture  
Dew Point 46 °F    
Average Humidity 76    
Maximum Humidity 88    
Minimum Humidity 58    
Precipitation  
Precipitation 0.00 in 0.06 in - ()
Sea Level Pressure  
Sea Level Pressure 30.08 in    
Wind  
Wind Speed 11 mph ()    
Max Wind Speed 18 mph    
Max Gust Speed -    
Visibility 15.0 miles    
Events      
T = Trace of Precipitation, MM = Missing Value Source: Averaged Metar Reports

Daily Weather History Graph

Daily Weather History Graph

Search for Another Location

Airport or City:

Trip Planner

Search our weather history database for the weather conditions in past years. The results will help you decide how hot, cold, wet, or windy it might be!

Date:

Astronomy

Oct. 20, 2013 Rise Set
Actual Time 7:16 AM CEST 5:46 PM CEST
Civil Twilight 6:44 AM CEST 6:19 PM CEST
Nautical Twilight 6:06 AM CEST 6:56 PM CEST
Astronomical Twilight 5:29 AM CEST 7:33 PM CEST
Moon 6:32 PM CEST (10/20) 8:45 AM CEST (10/20)
Length of Visible Light 11h 35m
Length of Day
10h 29m
Full, 98% of the Moon is Illuminated
Oct 20
Full
Oct 27
Last Quarter
Nov 3
New
Nov 10
First Quarter
Nov 17
Full

Hourly Weather History & Observations

Time (CEST) Temp. Windchill Dew Point Humidity Pressure Visibility Wind Dir Wind Speed Gust Speed Precip Events Conditions
12:00 AM 46.4 °F 43.5 °F 41.0 °F 81% 30.09 in - SW 5.8 mph - N/A   Clear
12:30 AM 46.4 °F 41.9 °F 41.0 °F 81% 30.09 in - SW 9.2 mph - N/A   Clear
1:00 AM 50.0 °F - 41.0 °F 71% 30.09 in - SW 9.2 mph - N/A   Clear
1:30 AM 48.2 °F - 41.0 °F 76% 30.09 in - WSW 4.6 mph - N/A   Clear
2:00 AM 49 °F - 42 °F 68% 30.10 in 12 mi SW 11.2 mph - -   Scattered Clouds
2:00 AM 48.2 °F - 42.8 °F 82% 30.06 in - SSW 10.4 mph - N/A   Clear
2:30 AM 50.0 °F - 42.8 °F 76% 30.09 in - WSW 13.8 mph - N/A   Clear
3:00 AM 48.2 °F - 41.0 °F 76% 30.09 in - WSW 15.0 mph - N/A   Clear
3:30 AM 48.2 °F - 41.0 °F 76% 30.09 in - WSW 12.7 mph - N/A   Clear
4:00 AM 48.2 °F - 41.0 °F 76% 30.09 in - West 10.4 mph - N/A   Clear
4:30 AM 46.4 °F 39.8 °F 41.0 °F 81% 30.09 in - SW 16.1 mph - N/A   Clear
5:00 AM 48.2 °F - 41.0 °F 76% 30.09 in - SW 13.8 mph - N/A   Clear
5:30 AM 48.2 °F - 42.8 °F 82% 30.09 in - WSW 13.8 mph - N/A   Clear
6:00 AM 48.2 °F - 42.8 °F 82% 30.09 in - WSW 13.8 mph - N/A   Clear
6:30 AM 48.2 °F - 41.0 °F 76% 30.09 in - WSW 15.0 mph - N/A   Clear
7:00 AM 46.4 °F 40.7 °F 41.0 °F 81% 30.09 in - WSW 12.7 mph - N/A   Clear
7:30 AM 46.4 °F 40.7 °F 41.0 °F 81% 30.09 in - WSW 12.7 mph - N/A   Clear
8:00 AM 47 °F - 42 °F 79% 30.13 in 16 mi WSW 13.4 mph - -   Scattered Clouds
8:00 AM 48.2 °F - 42.8 °F 82% 30.09 in - WSW 13.8 mph - N/A   Clear
8:30 AM 48.2 °F - 42.8 °F 82% 30.09 in - WSW 15.0 mph - N/A   Clear
9:00 AM 51.8 °F - 44.6 °F 76% 30.12 in - WSW 16.1 mph - N/A   Clear
9:30 AM 53.6 °F - 44.6 °F 72% 30.12 in - WSW 16.1 mph - N/A   Clear
10:00 AM 53.6 °F - 44.6 °F 72% 30.12 in - SW 18.4 mph - N/A   Clear
10:30 AM 55.4 °F - 46.4 °F 72% 30.09 in - WSW 15.0 mph - N/A   Clear
11:00 AM 55.4 °F - 46.4 °F 72% 30.09 in - WSW 15.0 mph - N/A   Clear
11:30 AM 55.4 °F - 46.4 °F 72% 30.09 in - WSW 13.8 mph - N/A   Clear
12:00 PM 57.2 °F - 48.2 °F 72% 30.09 in - WSW 18.4 mph - N/A   Clear
12:30 PM 57.2 °F - 46.4 °F 67% 30.09 in - WSW 17.3 mph - N/A   Clear
1:00 PM 57.2 °F - 48.2 °F 72% 30.12 in - WSW 12.7 mph - N/A   Clear
1:30 PM 59.0 °F - 48.2 °F 67% 30.09 in - WSW 12.7 mph - N/A   Clear
2:00 PM 60 °F - 49 °F 58% 30.08 in 16 mi WSW 15.7 mph - -   Partly Cloudy
2:00 PM 60.8 °F - 50.0 °F 68% 30.09 in - WSW 17.3 mph - N/A   Clear
2:30 PM 60.8 °F - 50.0 °F 68% 30.06 in - WSW 15.0 mph - N/A   Clear
3:00 PM 60.8 °F - 50.0 °F 68% 30.06 in - WSW 13.8 mph - N/A   Clear
3:30 PM 60.8 °F - 50.0 °F 68% 30.06 in - WSW 13.8 mph - N/A   Clear
4:00 PM 60.8 °F - 50.0 °F 68% 30.06 in - WSW 13.8 mph - N/A   Clear
4:30 PM 60.8 °F - 50.0 °F 68% 30.06 in - WSW 15.0 mph - N/A   Clear
5:00 PM 59.0 °F - 50.0 °F 72% 30.06 in - WSW 13.8 mph - N/A   Clear
5:30 PM 57.2 °F - 50.0 °F 77% 30.06 in - SW 13.8 mph - N/A   Clear
6:00 PM 55.4 °F - 48.2 °F 77% 30.06 in - SW 11.5 mph - N/A   Clear
6:30 PM 57.2 °F - 48.2 °F 72% 30.06 in - WSW 13.8 mph - N/A   Clear
7:00 PM 55.4 °F - 48.2 °F 77% 30.06 in - SW 9.2 mph - N/A   Clear
7:30 PM 53.6 °F - 48.2 °F 82% 30.06 in - WSW 9.2 mph - N/A   Clear
8:00 PM 53 °F - 47 °F 75% 30.08 in 16 mi WSW 6.7 mph - -   Scattered Clouds
8:00 PM 53.6 °F - 48.2 °F 82% 30.06 in - WSW 6.9 mph - N/A   Clear
8:30 PM 53.6 °F - 48.2 °F 82% 30.06 in - WSW 11.5 mph - N/A   Clear
9:00 PM 53.6 °F - 48.2 °F 82% 30.09 in - WSW 16.1 mph - N/A   Clear
9:30 PM 51.8 °F - 46.4 °F 82% 30.09 in - SW 10.4 mph - N/A   Clear
10:00 PM 51.8 °F - 48.2 °F 88% 30.09 in - SW 10.4 mph - N/A   Clear
10:30 PM 51.8 °F - 48.2 °F 88% 30.09 in - SW 10.4 mph - N/A   Clear
11:00 PM 51.8 °F - 48.2 °F 88% 30.09 in - Variable 2.3 mph - N/A   Clear
11:30 PM 53.6 °F - 48.2 °F 82% 30.09 in - SSW 8.1 mph - N/A   Clear